CW6739 Weather Reports


time (UTC)temp
C
wind
direction
speed
KPH
gust
KPH
rain 1hr
cm
rain 24hr
cm
rain mn
cm
humidity
%
barometer
mb
20190522223221 18 155 1.6 32.2 0.00 0.00 0.00 36 1013.0
20190522220220 20 193 6.4 29.0 0.00 0.00 0.00 32 1013.1
20190522213219 19 84 0.0 25.7 0.00 0.00 0.00 33 1013.4
20190522210218 18 114 0.0 22.5 0.00 0.00 0.00 35 1013.5
20190522203217 17 158 0.0 17.7 0.00 0.00 0.00 37 1013.9
20190522200216 17 214 4.8 14.5 0.00 0.00 0.00 38 1013.9
20190522193215 16 173 0.0 16.1 0.00 0.00 0.00 40 1014.2
20190522190214 14 196 0.0 8.0 0.00 0.00 0.00 46 1014.5
20190522183214 13 209 3.2 11.3 0.00 0.00 0.00 52 1015.0
20190522180213 12 182 0.0 6.4 0.00 0.00 0.00 58 1015.0
20190522173213 10 164 0.0 1.6 0.00 0.00 0.00 61 1015.3
20190522170211 9 144 0.0 3.2 0.00 0.00 0.00 64 1015.6
20190522163210 8 144 0.0 8.0 0.00 0.00 0.00 69 1016.0
20190522160209 6 145 0.0 6.4 0.00 0.00 0.00 83 1016.3
20190522153208 3 323 0.0 1.6 0.00 0.00 0.00 92 1016.5
20190522150207 1 323 0.0 0.0 0.00 0.00 0.00 90 1016.5
20190522143206 1 323 0.0 0.0 0.00 0.00 0.00 88 1017.0
20190522140206 1 323 0.0 0.0 0.00 0.00 0.00 88 1017.1
20190522133205 1 323 0.0 0.0 0.00 0.00 0.00 87 1017.1
20190522130204 1 323 0.0 0.0 0.00 0.00 0.00 86 1017.2
20190522123203 1 323 0.0 0.0 0.00 0.00 0.00 86 1017.3
20190522120202 2 323 0.0 0.0 0.00 0.00 0.00 85 1017.5
20190522113201 2 323 0.0 0.0 0.00 0.00 0.00 85 1017.3
20190522110200 3 323 0.0 0.0 0.00 0.00 0.00 84 1017.3
20190522103159 3 323 0.0 0.0 0.00 0.00 0.00 83 1017.5
20190522100158 4 323 0.0 0.0 0.00 0.00 0.00 81 1017.5
20190522093157 5 323 0.0 0.0 0.00 0.00 0.00 78 1017.2
20190522090157 6 323 0.0 0.0 0.00 0.00 0.00 76 1017.1
20190522083156 7 323 0.0 0.0 0.00 0.00 0.00 73 1017.1
20190522080224 8 323 0.0 0.0 0.00 0.00 0.00 69 1016.6
20190522073224 10 323 0.0 3.2 0.00 0.00 0.00 64 1016.5
20190522070223 11 323 0.0 9.7 0.00 0.00 0.00 61 1016.5
20190522063222 12 291 0.0 14.5 0.00 0.00 0.00 56 1016.2
20190522060221 14 306 0.0 12.9 0.00 0.00 0.00 50 1016.0
20190522053220 15 261 0.0 16.1 0.00 0.00 0.00 45 1015.6
20190522050219 16 272 0.0 19.3 0.00 0.00 0.00 42 1015.4
20190522043218 17 275 0.0 17.7 0.00 0.00 0.00 40 1015.1
20190522040218 17 227 0.0 14.5 0.00 0.00 0.00 40 1014.9
20190522033216 18 236 3.2 12.9 0.00 0.00 0.00 39 1014.6
20190522030215 19 271 0.0 12.9 0.00 0.00 0.00 37 1014.5
20190522023215 20 348 0.0 11.3 0.00 0.00 0.00 38 1014.5
20190522020214 20 329 0.0 12.9 0.00 0.00 0.00 35 1014.6
20190522013213 19 215 1.6 14.5 0.00 0.00 0.00 36 1014.5
20190522010212 19 270 0.0 16.1 0.00 0.00 0.00 36 1014.6
20190522003211 18 212 0.0 12.9 0.00 0.00 0.00 37 1014.5
20190522000210 18 168 0.0 14.5 0.00 0.00 0.00 37 1014.5
20190521233209 18 276 11.3 16.1 0.00 0.00 0.00 41 1014.5
20190521230208 17 338 4.8 17.7 0.00 0.00 0.00 41 1014.4